Location: Unspecified
(0.0000°N, 0.0000°E)
Time: 11:50:06
(UTC+02:00)

Ariane H10-3 - Visible Passes

Search period start: 21 April 2015 00:00
Search period end: 01 May 2015 00:00
Orbit: 221 x 21186 km, 7.3° (Epoch: 20 April)

Date Brightness Start Highest point End Pass type
(mag) Time Alt. Az. Time Alt. Az. Time Alt. Az.
21 Apr 6.3 04:18:31 40° E 04:18:31 40° E 04:37:15 10° E visible
21 Apr 4.9 22:13:34 10° W 22:25:04 40° NNW 22:25:04 40° NNW visible
22 Apr 5.5 04:58:48 70° SE 04:58:48 70° SE 05:42:44 10° E visible
22 Apr 6.2 23:01:33 10° WNW 23:04:53 19° WNW 23:04:53 19° WNW visible
23 Apr 5.4 05:38:28 63° WSW 05:40:36 76° S 08:07:39 10° E visible
24 Apr 5.8 06:17:29 36° WSW 06:23:54 75° S 10:32:07 10° E visible
25 Apr 6.4 06:55:53 18° W 07:07:42 76° S 11:39:00 10° E visible
28 Apr 5.8 19:27:03 10° W 20:34:53 62° N 20:41:16 10° ENE visible
29 Apr 7.4 03:14:16 13° E 03:14:16 13° E 03:15:53 10° E visible
29 Apr 5.1 20:41:11 10° W 21:13:21 56° N 21:17:08 21° ENE visible
30 Apr 6.8 03:49:40 26° ESE 03:49:40 26° ESE 04:00:02 10° E visible
30 Apr 4.5 21:32:39 10° W 21:50:48 49° N 21:52:05 41° NNE visible
